{"data":{"norad_id":59285,"intl_designator":"2024-052F","name":"YUNHAI-2 02F","alt_names":[],"object_type":"PAYLOAD","status":"ACTIVE","operator":null,"country":"PRC","launch_date":"2024-03-21","launch_site_code":"JSC","launch_vehicle":null,"mission":null,"orbit_class":"UNKNOWN","rcs_meters":null,"size_class":null,"mass_kg":null,"dimensions":null,"purposes":[],"wikipedia_slug":null,"has_3d_model":false,"image_url":null,"decayed_at":null,"tle_current":{"epoch":"2026-09-22T21:56:17.179872Z","epoch_age_seconds":52286,"freshness":"FRESH","line1":"1 59285U 24052F   26265.91408773  .00000004  00000+0  65976-4 0  9992","line2":"2 59285  50.0110 148.8068 0005048 160.9745 199.1359 14.28018096133128","mean_motion":14.28018096,"eccentricity":0.0005048,"inclination_deg":50.011,"raan_deg":148.8068,"arg_perigee_deg":160.9745,"mean_anomaly_deg":199.1359,"bstar":6.5976e-5,"rev_number":13312,"period_min":100.83905827479,"perigee_km":794.74049328947,"apogee_km":801.98588788189,"semimajor_km":7176.5001905857,"source":"CELESTRAK","updated_at":"2026-09-23T09:00:19.285016Z"}}}